This is the latest recevied weather packets stored in our database for station/object K0VSC-1. If no packets are shown the sender has not sent any weather packets the latest 10 day(s).
| Time | Temp. | Humidity | Pressure | Rain* | Wind** | Luminosity | Snow |
|---|---|---|---|---|---|---|---|
| 1777391303 | 6.11° C | 53% | 1016.8 hPa | 0 mm | - | 686 W/m² | - |
| 1777391003 | 6.11° C | 56% | 1016.9 hPa | 0 mm | - | 661 W/m² | - |
| 1777390703 | 6.11° C | 59% | 1016.9 hPa | 0 mm | - | 649 W/m² | - |
| 1777390403 | 6.11° C | 58% | 1016.9 hPa | 0 mm | - | 652 W/m² | - |
| 1777390103 | 6.11° C | 62% | 1017 hPa | 0.25 mm | - | 640 W/m² | - |
| 1777389803 | 5.56° C | 57% | 1017 hPa | 0.25 mm | - | 629 W/m² | - |
| 1777389503 | 5.56° C | 58% | 1016.9 hPa | 0.25 mm | - | 619 W/m² | - |
| 1777389203 | 5.56° C | 60% | 1016.7 hPa | 0.25 mm | - | 613 W/m² | - |
| 1777388903 | 5.56° C | 59% | 1016.6 hPa | 0.25 mm | - | 601 W/m² | - |
| 1777388603 | 5.56° C | 59% | 1016.6 hPa | 0.25 mm | - | 584 W/m² | - |
| 1777388303 | 5.56° C | 61% | 1016.4 hPa | 0.25 mm | - | 571 W/m² | - |
| 1777388003 | 5° C | 59% | 1016.5 hPa | 0.25 mm | - | 566 W/m² | - |
| 1777387703 | 5° C | 62% | 1016.4 hPa | 0.25 mm | - | 550 W/m² | - |
| 1777387403 | 5° C | 65% | 1016.5 hPa | 0.25 mm | - | 540 W/m² | - |
| 1777387103 | 5° C | 63% | 1016.5 hPa | 0.25 mm | - | 526 W/m² | - |
| 1777386803 | 5° C | 65% | 1016.5 hPa | 0.25 mm | - | 513 W/m² | - |
| 1777386503 | 5° C | 66% | 1016.5 hPa | 0 mm | - | 485 W/m² | - |
| 1777386203 | 4.44° C | 65% | 1016.3 hPa | 0 mm | - | 490 W/m² | - |
| 1777385903 | 4.44° C | 68% | 1016.1 hPa | 0 mm | - | 473 W/m² | - |
| 1777385603 | 4.44° C | 68% | 1016 hPa | 0 mm | - | 459 W/m² | - |
| 1777385339 | 4.44° C | 66% | 1016.1 hPa | 0 mm | - | 445 W/m² | - |
| 1777385303 | 4.44° C | 66% | 1016.1 hPa | 0 mm | - | 445 W/m² | - |
| 1777385003 | 4.44° C | 68% | 1016.1 hPa | 0 mm | - | 431 W/m² | - |
| 1777384703 | 4.44° C | 72% | 1016.2 hPa | 0 mm | - | 415 W/m² | - |
| 1777384403 | 3.89° C | 70% | 1016 hPa | 0 mm | - | 401 W/m² | - |
* Rain latest hour (hover to see other rain measurements)
** Current wind speed in m/s (hover to see current wind gust speed)